Location: Unspecified
(0.0000°N, 0.0000°E)
Time: 23:10:39
(UTC+01:00)

Iridium 39 - Visible Passes

Search period start: 24 February 2017 00:00
Search period end: 06 March 2017 00:00
Orbit: 725 x 751 km, 86.4° (Epoch: 24 February)

Date Brightness Start Highest point End Pass type
(mag) Time Alt. Az. Time Alt. Az. Time Alt. Az.
24 Feb 8.4 19:45:32 10° SSW 19:49:38 26° W 19:53:45 10° NNW visible
25 Feb 7.7 06:32:39 10° NNE 06:37:19 37° E 06:41:58 10° SSE visible
26 Feb 9.3 05:50:37 10° ENE 05:52:18 12° E 05:53:57 10° ESE visible
26 Feb 9.2 19:56:34 10° WSW 19:59:10 14° W 20:01:48 10° WNW visible
27 Feb 6.4 06:41:49 10° N 06:46:52 70° E 06:51:54 10° S visible
28 Feb 8.6 05:58:00 10° NE 06:01:50 22° E 06:05:40 10° SE visible
02 Mar 7.4 06:06:40 10° NNE 06:11:23 40° E 06:16:05 10° SSE visible
03 Mar 9.2 05:24:19 10° ENE 05:26:21 12° E 05:28:24 10° ESE visible
04 Mar 6.2 06:15:53 10° N 06:20:55 75° E 06:25:57 10° S visible
05 Mar 8.3 05:31:57 10° NE 05:35:54 23° E 05:39:50 10° SE visible
